Weather History for Sierra Vista, AZ

Change the Weather History Date:

Friday, November 1, 2013

  Actual Average Record
Temperature  
Mean Temperature 56 °F -  
Max Temperature 71 °F 69 °F 82 °F (1999)
Min Temperature 42 °F 47 °F 33 °F (1991)
Degree Days  
Heating Degree Days 8    
Growing Degree Days 6 (Base 50)    
Moisture  
Dew Point 13 °F    
Average Humidity 20    
Maximum Humidity 34    
Minimum Humidity 9    
Precipitation  
Precipitation 0.00 in - - ()
Sea Level Pressure  
Sea Level Pressure 30.09 in    
Wind  
Wind Speed 4 mph (SSW)    
Max Wind Speed 9 mph    
Max Gust Speed -    
Visibility 10 miles    
Events      
Averages and records for this station are not official NWS values.
T = Trace of Precipitation, MM = Missing Value Source: NWS Daily Summary

Daily Weather History Graph

Daily Weather History Graph

Search for Another Location

Airport:

Trip Planner

Search our weather history database for the weather conditions in past years. The results will help you decide how hot, cold, wet, or windy it might be!

Date:

Astronomy

Nov. 01, 2013 Rise Set
Actual Time 6:37 AM MST 5:31 PM MST
Civil Twilight 6:12 AM MST 5:56 PM MST
Nautical Twilight 5:43 AM MST 6:25 PM MST
Astronomical Twilight 5:15 AM MST 6:54 PM MST
Moon 4:40 AM MST (11/1) 4:22 PM MST (11/1)
Length of Visible Light 11h 44m
Length of Day
10h 54m
Waning Crescent, 4% of the Moon is Illuminated
Nov 1
Waning Crescent
Nov 3
New
Nov 9
First Quarter
Nov 17
Full
Nov 25
Last Quarter

Hourly Weather History & Observations

Time (MST) Temp. Windchill Dew Point Humidity Pressure Visibility Wind Dir Wind Speed Gust Speed Precip Events Conditions
12:55 AM 46.4 °F 45.2 °F 10.4 °F 23% 30.05 in 10.0 mi SSE 3.5 mph - N/A   Clear
1:55 AM 46.4 °F 43.5 °F 14.0 °F 27% 30.06 in 10.0 mi West 5.8 mph - N/A   Clear
2:55 AM 46.4 °F 44.3 °F 14.0 °F 27% 30.05 in 10.0 mi West 4.6 mph - N/A   Clear
3:55 AM 44.6 °F 42.2 °F 14.0 °F 29% 30.05 in 10.0 mi WSW 4.6 mph - N/A   Clear
4:55 AM 44.6 °F 42.2 °F 14.0 °F 29% 30.07 in 10.0 mi West 4.6 mph - N/A   Clear
5:55 AM 42.8 °F 41.1 °F 15.8 °F 34% 30.12 in 10.0 mi SSW 3.5 mph - N/A   Clear
6:55 AM 42.8 °F 40.1 °F 15.8 °F 34% 30.15 in 10.0 mi South 4.6 mph - N/A   Clear
7:59 AM 53.6 °F - 19.4 °F 26% 30.14 in 10.0 mi Calm Calm - N/A   Clear
8:59 AM 57.2 °F - 17.6 °F 21% 30.16 in 10.0 mi Calm Calm - N/A   Clear
9:55 AM 60.8 °F - 14.0 °F 16% 30.14 in 10.0 mi Calm Calm - N/A   Clear
10:55 AM 64.4 °F - 10.4 °F 12% 30.14 in 10.0 mi Variable 2.3 mph - N/A   Clear
11:55 AM 66.2 °F - 10.4 °F 11% 30.11 in 10.0 mi NNE 6.9 mph - N/A   Clear
12:55 PM 68.0 °F - 8.6 °F 10% 30.08 in 10.0 mi Variable 3.5 mph - N/A   Clear
1:55 PM 69.8 °F - 10.4 °F 10% 30.06 in 10.0 mi Variable 3.5 mph - N/A   Clear
2:55 PM 71.6 °F - 8.6 °F 9% 30.05 in 10.0 mi Calm Calm - N/A   Clear
3:55 PM 71.6 °F - 10.4 °F 9% 30.04 in 10.0 mi NNW 2.3 mph - N/A   Clear
4:55 PM 69.8 °F - 10.4 °F 10% 30.04 in 10.0 mi ENE 4.6 mph - N/A   Clear
5:55 PM 64.4 °F - 12.2 °F 13% 30.07 in 10.0 mi Calm Calm - N/A   Clear
6:55 PM 55.4 °F - 14.0 °F 20% 30.11 in 10.0 mi South 3.5 mph - N/A   Clear
7:55 PM 53.6 °F - 14.0 °F 21% 30.09 in 10.0 mi SW 3.5 mph - N/A   Clear
8:55 PM 53.6 °F - 15.8 °F 22% 30.09 in 10.0 mi SSW 3.5 mph - N/A   Clear
9:55 PM 51.8 °F - 15.8 °F 24% 30.08 in 10.0 mi Calm Calm - N/A   Clear
10:55 PM 55.4 °F - 14.0 °F 20% 30.07 in 10.0 mi East 5.8 mph - N/A   Clear
11:56 PM 52.0 °F - 14.0 °F 22% 30.06 in 10.0 mi SSE 9.2 mph - N/A   Clear